Weather History for KAXS - April, 2013

Change the Weather History Date:

Saturday, April 6, 2013

  Actual Average (KLTS) Record (KLTS)
Temperature  
Mean Temperature 64 °F -  
Max Temperature 77 °F 68 °F 94 °F (2011)
Min Temperature 50 °F 44 °F 32 °F (2009)
Degree Days  
Heating Degree Days 2    
Growing Degree Days 14 (Base 50)    
Moisture  
Dew Point 47 °F    
Average Humidity 59    
Maximum Humidity 84    
Minimum Humidity 32    
Precipitation  
Precipitation 0.00 in - - ()
Sea Level Pressure  
Sea Level Pressure 29.85 in    
Wind  
Wind Speed 11 mph (ESE)    
Max Wind Speed 17 mph    
Max Gust Speed 16 mph    
Visibility 10 miles    
Events      
Averages and records for this station are not official NWS values.
T = Trace of Precipitation, MM = Missing Value Source: NWS Daily Summary

Daily Weather History Graph

Daily Weather History Graph

Search for Another Location

Airport or City:

Trip Planner

Search our weather history database for the weather conditions in past years. The results will help you decide how hot, cold, wet, or windy it might be!

Date:

Astronomy

Apr. 06, 2013 Rise Set
Actual Time 7:17 AM CDT 8:02 PM CDT
Civil Twilight 6:51 AM CDT 8:28 PM CDT
Nautical Twilight 6:21 AM CDT 8:58 PM CDT
Astronomical Twilight 5:50 AM CDT 9:29 PM CDT
Moon 4:53 AM CDT 4:40 PM CDT
Length of Visible Light 13h 36m
Length of Day
12h 45m
Waning Crescent, 15% of the Moon is Illuminated
Apr 6
Waning Crescent
Apr 10
New
Apr 18
First Quarter
Apr 25
Full
May 2
Last Quarter

Hourly Weather History & Observations

Time (CDT) Temp. Dew Point Humidity Pressure Visibility Wind Dir Wind Speed Gust Speed Precip Events Conditions
12:15 AM 56.5 °F 46.4 °F 69% 29.90 in 10.0 mi SE 17.3 mph - N/A   Clear
12:35 AM 56.3 °F 46.6 °F 70% 29.90 in 10.0 mi SE 16.1 mph - N/A   Clear
12:55 AM 55.9 °F 46.6 °F 71% 29.90 in 10.0 mi SE 15.0 mph - N/A   Clear
1:15 AM 55.6 °F 46.6 °F 72% 29.90 in 10.0 mi SE 11.5 mph - N/A   Clear
1:35 AM 55.0 °F 46.6 °F 73% 29.89 in 10.0 mi SE 12.7 mph - N/A   Clear
1:55 AM 54.5 °F 46.6 °F 75% 29.89 in 10.0 mi SE 10.4 mph - N/A   Clear
2:15 AM 54.1 °F 46.6 °F 76% 29.88 in 10.0 mi SE 10.4 mph - N/A   Clear
2:35 AM 54.0 °F 46.6 °F 76% 29.88 in 10.0 mi SE 10.4 mph - N/A   Clear
2:55 AM 53.6 °F 46.6 °F 77% 29.88 in 10.0 mi SE 10.4 mph - N/A   Clear
3:15 AM 52.9 °F 46.4 °F 79% 29.86 in 10.0 mi SE 11.5 mph - N/A   Clear
3:35 AM 52.7 °F 46.4 °F 79% 29.86 in 10.0 mi SE 10.4 mph - N/A   Clear
3:55 AM 52.7 °F 46.0 °F 78% 29.86 in 10.0 mi SE 10.4 mph - N/A   Clear
4:15 AM 53.1 °F 46.0 °F 77% 29.84 in 10.0 mi SE 13.8 mph - N/A   Clear
4:35 AM 53.1 °F 46.0 °F 77% 29.84 in 10.0 mi SE 13.8 mph - N/A   Clear
4:55 AM 52.9 °F 46.2 °F 78% 29.83 in 10.0 mi SE 12.7 mph - N/A   Clear
5:15 AM 52.3 °F 45.9 °F 79% 29.83 in 10.0 mi SE 12.7 mph - N/A   Clear
5:55 AM 51.4 °F 46.0 °F 82% 29.83 in 10.0 mi SE 12.7 mph - N/A   Clear
6:15 AM 51.3 °F 46.0 °F 82% 29.83 in 10.0 mi SSE 11.5 mph - N/A   Clear
6:35 AM 50.7 °F 45.9 °F 83% 29.84 in 10.0 mi SE 10.4 mph - N/A   Clear
6:55 AM 50.5 °F 45.9 °F 84% 29.83 in 10.0 mi SE 11.5 mph - N/A   Clear
7:15 AM 50.4 °F 45.5 °F 83% 29.83 in 10.0 mi SSE 11.5 mph - N/A   Clear
7:35 AM 50.7 °F 45.7 °F 83% 29.84 in 10.0 mi SSE 12.7 mph - N/A   Clear
7:55 AM 50.9 °F 45.9 °F 83% 29.87 in 10.0 mi SE 4.6 mph - N/A   Clear
8:15 AM 52.2 °F 46.4 °F 81% 29.86 in 10.0 mi SSE 11.5 mph - N/A   Clear
8:35 AM 53.4 °F 46.9 °F 79% 29.86 in 10.0 mi SSE 12.7 mph - N/A   Clear
8:55 AM 55.4 °F 47.5 °F 75% 29.86 in 10.0 mi SSE 12.7 mph - N/A   Clear
9:15 AM 57.4 °F 47.7 °F 70% 29.86 in 10.0 mi SSE 13.8 mph - N/A   Clear
9:55 AM 61.2 °F 48.4 °F 63% 29.87 in 10.0 mi South 10.4 mph - N/A   Clear
10:15 AM 63.1 °F 48.2 °F 58% 29.86 in 10.0 mi South 13.8 mph - N/A   Clear
10:35 AM 64.8 °F 46.9 °F 52% 29.86 in 10.0 mi South 12.7 mph - N/A   Clear
10:55 AM 65.8 °F 47.3 °F 51% 29.86 in 10.0 mi SSW 11.5 mph 16.1 mph N/A   Clear
11:15 AM 67.1 °F 47.5 °F 49% 29.87 in 10.0 mi South 10.4 mph - N/A   Clear
11:35 AM 68.0 °F 46.4 °F 46% 29.87 in 10.0 mi SW 6.9 mph - N/A   Clear
11:55 AM 69.1 °F 46.6 °F 45% 29.87 in 10.0 mi South 5.8 mph - N/A   Clear
12:15 PM 70.3 °F 45.9 °F 41% 29.87 in 10.0 mi Calm Calm - N/A   Clear
12:35 PM 72.0 °F 46.2 °F 40% 29.87 in 10.0 mi East 3.5 mph - N/A   Clear
12:55 PM 72.7 °F 45.1 °F 37% 29.87 in 10.0 mi East 5.8 mph - N/A   Clear
1:15 PM 72.5 °F 45.0 °F 37% 29.87 in 10.0 mi East 4.6 mph - N/A   Clear
1:35 PM 73.4 °F 45.9 °F 37% 29.87 in 10.0 mi ESE 3.5 mph - N/A   Clear
1:55 PM 73.4 °F 46.0 °F 38% 29.87 in 10.0 mi East 3.5 mph - N/A   Clear
2:15 PM 73.8 °F 45.3 °F 36% 29.86 in 10.0 mi Calm Calm - N/A   Clear
2:55 PM 75.6 °F 45.3 °F 34% 29.85 in 10.0 mi East 9.2 mph - N/A   Clear
3:15 PM 75.2 °F 44.6 °F 34% 29.84 in 10.0 mi East 11.5 mph - N/A   Clear
3:35 PM 76.3 °F 44.2 °F 32% 29.84 in 10.0 mi East 9.2 mph - N/A   Clear
3:55 PM 76.1 °F 45.5 °F 34% 29.83 in 10.0 mi East 6.9 mph - N/A   Clear
4:15 PM 76.8 °F 45.9 °F 33% 29.82 in 10.0 mi ESE 10.4 mph - N/A   Clear
4:35 PM 76.3 °F 45.5 °F 33% 29.82 in 10.0 mi Calm Calm - N/A   Clear
4:55 PM 77.2 °F 46.2 °F 33% 29.82 in 10.0 mi NE 5.8 mph - N/A   Clear
5:15 PM 77.0 °F 46.9 °F 34% 29.82 in 10.0 mi SE 6.9 mph - N/A   Clear
5:35 PM 75.2 °F 46.0 °F 35% 29.83 in 10.0 mi East 4.6 mph - N/A   Clear
5:55 PM 75.6 °F 45.5 °F 34% 29.83 in 10.0 mi ESE 3.5 mph - N/A   Clear
6:15 PM 75.6 °F 46.9 °F 36% 29.83 in 10.0 mi East 4.6 mph - N/A   Clear
6:35 PM 75.4 °F 46.9 °F 36% 29.83 in 10.0 mi ESE 6.9 mph - N/A   Clear
6:55 PM 73.6 °F 47.3 °F 39% 29.84 in 10.0 mi ESE 4.6 mph - N/A   Clear
7:15 PM 72.5 °F 49.5 °F 44% 29.83 in 10.0 mi ESE 4.6 mph - N/A   Clear
7:35 PM 70.9 °F 50.0 °F 48% 29.83 in 10.0 mi East 4.6 mph - N/A   Clear
7:55 PM 69.3 °F 51.6 °F 53% 29.84 in 10.0 mi East 4.6 mph - N/A   Clear
8:15 PM 67.8 °F 51.8 °F 56% 29.84 in 10.0 mi East 5.8 mph - N/A   Clear
8:35 PM 65.5 °F 52.5 °F 63% 29.84 in 10.0 mi NE 6.9 mph - N/A   Clear
8:55 PM 64.6 °F 50.5 °F 60% 29.84 in 10.0 mi NE 6.9 mph - N/A   Clear
9:15 PM 64.2 °F 49.6 °F 59% 29.84 in 10.0 mi NE 9.2 mph - N/A   Clear
9:35 PM 62.4 °F 49.5 °F 63% 29.85 in 10.0 mi NE 5.8 mph - N/A   Clear
9:55 PM 63.1 °F 49.1 °F 60% 29.86 in 10.0 mi ENE 8.1 mph - N/A   Clear
10:15 PM 60.6 °F 49.5 °F 67% 29.88 in 10.0 mi NE 6.9 mph - N/A   Clear
10:35 PM 62.6 °F 49.5 °F 62% 29.87 in 10.0 mi ENE 9.2 mph - N/A   Clear
10:55 PM 61.7 °F 49.5 °F 64% 29.87 in 10.0 mi ENE 8.1 mph - N/A   Clear
11:15 PM 61.9 °F 49.3 °F 63% 29.87 in 10.0 mi ENE 8.1 mph - N/A   Clear
11:35 PM 61.2 °F 49.1 °F 65% 29.87 in 10.0 mi East 8.1 mph - N/A   Clear
11:55 PM 60.6 °F 49.1 °F 66% 29.86 in 10.0 mi ENE 6.9 mph - N/A   Clear